Weather History for Oakland, CA

Change the Weather History Date:

Friday, April 11, 2014

  Actual Average Record
Temperature  
Mean Temperature 58 °F 57 °F  
Max Temperature 63 °F 66 °F 85 °F (1962)
Min Temperature 53 °F 48 °F 38 °F (1955)
Degree Days  
Heating Degree Days 7 8  
Month to date heating degree days 73 95  
Since 1 July heating degree days 2079 2448  
Cooling Degree Days 0 0  
Month to date cooling degree days 2 0  
Year to date cooling degree days 3 1  
Growing Degree Days 8 (Base 50)    
Moisture  
Dew Point 49 °F    
Average Humidity 75    
Maximum Humidity 89    
Minimum Humidity 60    
Precipitation  
Precipitation 0.00 in 0.04 in 0.81 in (2010)
Month to date precipitation 1.01 0.57  
Year to date precipitation 7.36 11.59  
Since 1 July precipitation 9.43 19.18  
Sea Level Pressure  
Sea Level Pressure 29.92 in    
Wind  
Wind Speed 9 mph (WNW)    
Max Wind Speed 24 mph    
Max Gust Speed 28 mph    
Visibility 10 miles    
Events      
T = Trace of Precipitation, MM = Missing Value Source: NWS Daily Summary

Daily Weather History Graph

Daily Weather History Graph

Search for Another Location

Airport:

Trip Planner

Search our weather history database for the weather conditions in past years. The results will help you decide how hot, cold, wet, or windy it might be!

Date:

Astronomy

Apr. 11, 2014 Rise Set
Actual Time 6:39 AM PDT 7:41 PM PDT
Civil Twilight 6:12 AM PDT 8:07 PM PDT
Nautical Twilight 5:40 AM PDT 8:39 PM PDT
Astronomical Twilight 5:07 AM PDT 9:13 PM PDT
Moon 4:30 PM PDT (4/11) 4:33 AM PDT (4/11)
Length of Visible Light 13h 55m
Length of Day
13h 01m
Waxing Gibbous, 87% of the Moon is Illuminated
Apr 11
Waxing Gibbous
Apr 15
Full
Apr 22
Last Quarter
Apr 28
New
May 6
First Quarter

Hourly Weather History & Observations

Time (PDT) Temp. Dew Point Humidity Pressure Visibility Wind Dir Wind Speed Gust Speed Precip Events Conditions
12:53 AM 53.1 °F 50.0 °F 89% 29.95 in 10.0 mi NW 3.5 mph - N/A   Mostly Cloudy
1:53 AM 53.1 °F 48.9 °F 86% 29.94 in 10.0 mi Calm Calm - N/A   Mostly Cloudy
2:53 AM 54.0 °F 48.9 °F 83% 29.94 in 10.0 mi NW 4.6 mph - N/A   Overcast
3:53 AM 54.0 °F 50.0 °F 86% 29.93 in 10.0 mi NW 11.5 mph - N/A   Overcast
4:23 AM 53.6 °F 50.0 °F 88% 29.93 in 10.0 mi NW 9.2 mph - N/A   Overcast
4:53 AM 53.1 °F 50.0 °F 89% 29.92 in 10.0 mi Calm Calm - N/A   Overcast
5:53 AM 54.0 °F 48.9 °F 83% 29.92 in 10.0 mi WNW 6.9 mph - N/A   Overcast
6:53 AM 53.1 °F 48.9 °F 86% 29.92 in 10.0 mi NNW 4.6 mph - N/A   Overcast
7:53 AM 54.0 °F 48.9 °F 83% 29.93 in 10.0 mi WNW 5.8 mph - N/A   Overcast
8:53 AM 55.0 °F 48.9 °F 80% 29.94 in 10.0 mi NW 4.6 mph - N/A   Overcast
9:53 AM 55.9 °F 50.0 °F 80% 29.95 in 10.0 mi West 6.9 mph - N/A   Overcast
10:53 AM 55.9 °F 48.9 °F 77% 29.97 in 10.0 mi WNW 6.9 mph - N/A   Overcast
11:22 AM 57.2 °F 48.2 °F 72% 29.96 in 10.0 mi West 3.5 mph - N/A   Overcast
11:53 AM 57.0 °F 48.9 °F 74% 29.96 in 10.0 mi WNW 4.6 mph - N/A   Overcast
12:41 PM 60.8 °F 50.0 °F 68% 29.94 in 10.0 mi NNW 5.8 mph - N/A   Mostly Cloudy
12:53 PM 60.1 °F 50.0 °F 69% 29.94 in 10.0 mi WNW 10.4 mph - N/A   Mostly Cloudy
1:53 PM 61.0 °F 48.9 °F 64% 29.92 in 10.0 mi WNW 10.4 mph - N/A   Mostly Cloudy
2:53 PM 63.0 °F 48.9 °F 60% 29.90 in 10.0 mi WNW 10.4 mph - N/A   Mostly Cloudy
3:53 PM 63.0 °F 48.9 °F 60% 29.88 in 10.0 mi WNW 11.5 mph - N/A   Mostly Cloudy
4:53 PM 61.0 °F 50.0 °F 67% 29.87 in 10.0 mi WNW 15.0 mph - N/A   Mostly Cloudy
5:53 PM 57.9 °F 48.9 °F 72% 29.87 in 10.0 mi WNW 16.1 mph - N/A   Mostly Cloudy
6:53 PM 55.9 °F 48.0 °F 75% 29.88 in 10.0 mi NW 15.0 mph 23.0 mph N/A   Mostly Cloudy
7:53 PM 55.9 °F 48.0 °F 75% 29.88 in 10.0 mi WNW 12.7 mph - N/A   Mostly Cloudy
8:53 PM 55.9 °F 48.0 °F 75% 29.90 in 10.0 mi WNW 10.4 mph - N/A   Mostly Cloudy
9:53 PM 55.9 °F 48.0 °F 75% 29.92 in 10.0 mi WSW 17.3 mph - N/A   Mostly Cloudy
10:53 PM 55.9 °F 48.0 °F 75% 29.92 in 10.0 mi West 13.8 mph - N/A   Mostly Cloudy
11:53 PM 55.9 °F 48.0 °F 75% 29.92 in 10.0 mi West 10.4 mph - N/A   Mostly Cloudy